Home   Weather   Sivaganga   Past weeks

Flag for India Past Weather in Sivaganga, Tamil Nadu, India — Yesterday and Last 2 Weeks

Now
82 °F

Passing clouds.


Feels Like: 88 °F
Forecast: 74 / 96 °F
Wind: 14 mph from West

Location: Tiruchchirapalli

Current Time: Oct 1, 2016 at 8:54:23 AM

Latest Report: Oct 1, 2016 at 8:00 AM


Visibility: 4 mi

Pressure: 29.74 "Hg

Humidity: 74%

Dew Point: 73 °F

Location of SivagangaLocation

Past Weather in Sivaganga — Graph

°F

Sivaganga Temperature Yesterday

Maximum temperature yesterday: 97 °F (at 2:30 PM)
Minimum temperature yesterday: 79 °F (at 12:00 AM)
Average temperature yesterday: 87 °F

High & Low Weather Summary for the Past Weeks

 TemperatureHumidityPressure
High102 °F (Sep 16, 2:00 PM)94% (Sep 29, 11:00 PM)29.83 "Hg (Sep 29, 11:00 PM)
Low79 °F (Sep 17, 6:00 AM)31% (Sep 16, 2:00 PM)29.53 "Hg (Sep 18, 9:30 AM)
Average88 °F55%29.70 "Hg
* Reported Sep 16 7:30 AM — Oct 1 7:30 AM, Sivaganga, Weather by CustomWeather, © 2016

Note: Actual official high and low records may vary slightly from our data, if they occured in-between our weather recording intervals... More about our weather records

Advertising

Sivaganga Weather History for the Previous 24 Hours

Scroll right to see more
 ConditionsComfort  
Time TempWeatherWind HumidityBarometerVisibility
7:30 AM
Sat, Oct 1
81 °FPassing clouds.14 mph70%29.74 "Hg4 mi
7:00 AM81 °FPassing clouds.14 mph62%29.71 "Hg4 mi
6:30 AM81 °FPassing clouds.14 mph62%29.71 "Hg4 mi
6:00 AM81 °FPassing clouds.12 mph66%29.71 "Hg4 mi
5:30 AM81 °FPassing clouds.14 mph66%29.68 "Hg4 mi
5:00 AM81 °FPassing clouds.12 mph62%29.68 "Hg4 mi
4:30 AM81 °FPassing clouds.7 mph62%29.68 "Hg4 mi
4:00 AM81 °FPassing clouds.12 mph62%29.65 "Hg4 mi
3:30 AM81 °FPassing clouds.9 mph62%29.65 "Hg4 mi
3:00 AM82 °FPassing clouds.9 mph58%29.65 "Hg4 mi
2:30 AM82 °FPassing clouds.12 mph58%29.68 "Hg4 mi
2:00 AM82 °FPassing clouds.12 mph79%29.68 "Hg4 mi
1:30 AM82 °FPassing clouds.12 mph79%29.68 "Hg4 mi
1:00 AM82 °FPassing clouds.12 mph79%29.68 "Hg4 mi
12:30 AM84 °FPassing clouds.9 mph74%29.71 "Hg4 mi
12:00 AM84 °FPassing clouds.9 mph70%29.71 "Hg4 mi
11:30 PM
Fri, Sep 30
84 °FPassing clouds.7 mph70%29.71 "Hg4 mi
11:00 PM86 °FPassing clouds.3 mph75%29.71 "Hg4 mi
10:30 PM86 °FPassing clouds.5 mph75%29.71 "Hg4 mi
10:00 PM88 °FPassing clouds.5 mph70%29.71 "Hg4 mi
9:30 PM88 °FPassing clouds.5 mph70%29.71 "Hg4 mi
9:00 PM88 °FPartly cloudy.5 mph70%29.68 "Hg4 mi
8:30 PM88 °FPartly cloudy.5 mph66%29.68 "Hg4 mi
8:00 PM91 °FPartly cloudy.2 mph49%29.65 "Hg4 mi
7:30 PM91 °FPartly cloudy.7 mph49%29.62 "Hg4 mi
7:00 PM91 °FPartly cloudy.3 mph49%29.62 "Hg4 mi
6:30 PM91 °FBroken clouds.3 mph52%29.62 "Hg4 mi
6:00 PM93 °FBroken clouds.3 mph47%29.59 "Hg4 mi
5:30 PM93 °FPartly sunny.9 mph47%29.59 "Hg4 mi
5:00 PM93 °FPartly sunny.6 mph47%29.59 "Hg4 mi
4:30 PM95 °FPartly sunny.12 mph44%29.59 "Hg4 mi
4:00 PM95 °FPassing clouds.7 mph47%29.59 "Hg4 mi
3:30 PM95 °FPassing clouds.14 mph47%29.59 "Hg4 mi
3:00 PM97 °FScattered clouds.14 mph42%29.59 "Hg4 mi
2:30 PM97 °FPartly sunny.14 mph39%29.59 "Hg4 mi
2:00 PM95 °FPartly sunny.14 mph44%29.62 "Hg4 mi
1:30 PM95 °FPartly sunny.12 mph47%29.65 "Hg4 mi
1:00 PM95 °FPartly sunny.12 mph47%29.65 "Hg4 mi
12:30 PM93 °FPartly sunny.14 mph49%29.68 "Hg4 mi
12:00 PM91 °FPartly sunny.14 mph52%29.71 "Hg4 mi
11:30 AM91 °FPartly sunny.12 mph52%29.71 "Hg4 mi
11:00 AM90 °FPartly sunny.12 mph55%29.71 "Hg4 mi
10:30 AM88 °FPartly sunny.12 mph59%29.74 "Hg4 mi
10:00 AM86 °FBroken clouds.12 mph62%29.74 "Hg4 mi
9:30 AM84 °FBroken clouds.12 mph66%29.74 "Hg4 mi
9:00 AM84 °FBroken clouds.12 mph66%29.74 "Hg3 mi
8:30 AM82 °FFog.12 mph70%29.74 "Hg3 mi
8:00 AM82 °FFog.12 mph74%29.71 "Hg3 mi
Weather by CustomWeather, © 2016

See weather overviewHow to use our weather pages